Date String (YYYY-MM-DD hh:mm:ss) UTC,Instrument flags,Ambient pressure (hPa),Sample flow (lpm),Bypass flow (lpm),Sample temperature (°C),Ambient temperature (°C),ASC tube jacket temperature (°C),LED temperature (°C),Box temperature (°C),Sample RH (%),Span deviation,Mass concentration (μg/m³),Mass concentration (μg/m³),Mass concentration (μg/m³)
DateTimeUTC,F1_M11,P_M11,Q1_M11,Q2_M11,T1_M11,T2_M11,T3_M11,T4_M11,T5_M11,U1_M11,ZSPAN_M11,X0_M11,X2_M11,X1_M11
2022-03-13 04:00:00,,0824.6,4.99,0.00,22.8,22.1,00.0,31.9,24.6,09.7,0000.0,0001.77,0001.05,0000.70
2022-03-13 04:01:00,,0824.6,5.00,0.00,22.8,22.1,00.0,31.9,24.6,09.7,0000.0,0001.70,0001.02,0000.70
2022-03-13 04:02:00,,0824.7,4.99,0.00,22.8,22.1,00.0,31.9,24.6,09.7,0000.0,0001.72,0001.02,0000.70
2022-03-13 04:03:00,,0824.6,4.99,0.00,22.8,22.1,00.0,31.9,24.5,09.6,0000.0,0001.64,0000.99,0000.69
2022-03-13 04:04:00,,0824.6,5.01,0.00,22.8,22.1,00.0,31.9,24.6,09.7,0000.0,0001.64,0000.99,0000.68
2022-03-13 04:05:00,,0824.6,5.00,0.00,22.9,22.1,00.0,31.9,24.6,09.7,0000.0,0001.66,0000.99,0000.69
2022-03-13 04:06:00,,0824.6,5.00,0.00,22.9,22.2,00.0,31.9,24.6,09.8,0000.0,0001.67,0000.96,0000.69
2022-03-13 04:07:00,,0824.7,5.00,0.00,22.9,22.2,00.0,31.9,24.6,09.8,0000.0,0002.16,0001.00,0000.69
2022-03-13 04:08:00,,0824.6,5.00,0.00,22.9,22.2,00.0,31.9,24.7,09.8,0000.0,0002.11,0000.98,0000.69
2022-03-13 04:09:00,,0824.6,5.01,0.00,22.9,22.2,00.0,31.9,24.7,09.7,0000.0,0002.14,0000.98,0000.69
2022-03-13 04:10:00,,0824.6,5.01,0.00,22.9,22.2,00.0,31.9,24.7,09.7,0000.0,0002.12,0000.99,0000.69
2022-03-13 04:11:00,,0824.6,5.00,0.00,23.0,22.3,00.0,31.9,24.8,09.7,0000.0,0002.20,0001.02,0000.70
2022-03-13 04:12:00,,0824.7,5.00,0.00,23.0,22.3,00.0,31.9,24.8,09.7,0000.0,0002.19,0001.02,0000.70
2022-03-13 04:13:00,,0824.7,5.00,0.00,23.0,22.3,00.0,31.9,24.7,09.7,0000.0,0002.13,0001.01,0000.70
2022-03-13 04:14:00,,0824.6,4.99,0.00,23.0,22.2,00.0,31.9,24.7,09.7,0000.0,0002.11,0001.00,0000.70
2022-03-13 04:15:00,,0824.6,5.02,0.00,23.0,22.2,00.0,31.9,24.7,09.7,0000.0,0002.16,0001.02,0000.70
2022-03-13 04:16:00,,0824.6,4.99,0.00,22.9,22.2,00.0,31.9,24.7,09.7,0000.0,0002.10,0001.00,0000.70
2022-03-13 04:17:00,,0824.6,5.00,0.00,22.9,22.2,00.0,31.9,24.7,09.7,0000.0,0001.99,0001.00,0000.69
2022-03-13 04:18:00,,0824.6,5.01,0.00,22.9,22.2,00.0,31.9,24.7,09.7,0000.0,0001.65,0001.00,0000.69
2022-03-13 04:19:00,,0824.6,5.00,0.00,22.9,22.2,00.0,31.9,24.6,09.7,0000.0,0001.74,0001.02,0000.69
2022-03-13 04:20:00,,0824.6,5.00,0.00,22.9,22.2,00.0,31.9,24.6,09.8,0000.0,0001.80,0001.03,0000.70
2022-03-13 04:21:00,,0824.6,5.00,0.00,22.9,22.1,00.0,31.9,24.6,09.8,0000.0,0001.79,0001.01,0000.69
2022-03-13 04:22:00,,0824.6,5.00,0.00,22.9,22.2,00.0,31.9,24.7,09.9,0000.0,0001.75,0000.99,0000.68
2022-03-13 04:23:00,,0824.6,5.00,0.00,22.9,22.2,00.0,31.9,24.7,10.1,0000.0,0001.74,0000.99,0000.68
2022-03-13 04:24:00,,0824.6,5.00,0.00,22.9,22.1,00.0,31.9,24.6,10.2,0000.0,0001.90,0001.02,0000.67
2022-03-13 04:25:00,,0824.6,5.00,0.00,22.9,22.1,00.0,31.9,24.6,10.1,0000.0,0001.99,0001.05,0000.68
2022-03-13 04:26:00,,0824.7,5.00,0.00,22.9,22.1,00.0,31.9,24.6,10.2,0000.0,0002.00,0001.05,0000.67
2022-03-13 04:27:00,,0824.6,4.99,0.00,22.9,22.1,00.0,31.9,24.6,10.2,0000.0,0002.23,0001.09,0000.67
2022-03-13 04:28:00,,0824.6,5.00,0.00,22.9,22.1,00.0,31.9,24.6,10.4,0000.0,0002.30,0001.11,0000.67
2022-03-13 04:29:00,,0824.6,5.01,0.00,22.9,22.1,00.0,31.9,24.6,10.4,0000.0,0002.13,0001.06,0000.66
2022-03-13 04:30:00,,0824.6,4.99,0.00,22.9,22.1,00.0,31.9,24.6,10.4,0000.0,0002.07,0001.05,0000.66
2022-03-13 04:31:00,,0824.6,5.00,0.00,22.8,22.1,00.0,31.9,24.5,10.5,0000.0,0002.01,0001.03,0000.66
2022-03-13 04:32:00,,0824.6,5.01,0.00,22.8,22.1,00.0,31.9,24.5,10.7,0000.0,0002.07,0001.05,0000.67
2022-03-13 04:33:00,,0824.6,5.00,0.00,22.8,22.0,00.0,31.9,24.5,10.6,0000.0,0002.08,0001.06,0000.67
2022-03-13 04:34:00,,0824.6,4.99,0.00,22.8,22.0,00.0,31.9,24.5,10.8,0000.0,0002.05,0001.03,0000.66
2022-03-13 04:35:00,,0824.6,5.02,0.00,22.7,22.0,00.0,31.8,24.5,10.8,0000.0,0002.05,0001.02,0000.67
2022-03-13 04:36:00,,0824.6,5.00,0.00,22.8,22.0,00.0,31.8,24.5,10.7,0000.0,0001.97,0000.99,0000.66
2022-03-13 04:37:00,,0824.6,5.00,0.00,22.8,22.0,00.0,31.8,24.5,10.5,0000.0,0001.88,0000.97,0000.65
2022-03-13 04:38:00,,0824.6,4.99,0.00,22.7,22.0,00.0,31.8,24.5,10.5,0000.0,0001.65,0000.93,0000.64
2022-03-13 04:39:00,,0824.6,5.01,0.00,22.7,22.0,00.0,31.8,24.4,10.6,0000.0,0001.59,0000.92,0000.65
2022-03-13 04:40:00,,0824.7,5.00,0.00,22.7,22.0,00.0,31.8,24.5,10.8,0000.0,0001.69,0000.96,0000.65
2022-03-13 04:41:00,,0824.6,5.00,0.00,22.8,22.0,00.0,31.8,24.5,10.7,0000.0,0003.00,0000.95,0000.65
2022-03-13 04:42:00,,0824.7,4.99,0.00,22.8,22.1,00.0,31.8,24.5,10.7,0000.0,0003.25,0000.94,0000.65
2022-03-13 04:43:00,,0824.6,5.00,0.00,22.8,22.1,00.0,31.8,24.5,10.6,0000.0,0003.20,0000.92,0000.65
2022-03-13 04:44:00,,0824.7,5.00,0.00,22.8,22.1,00.0,31.8,24.5,10.5,0000.0,0003.11,0000.91,0000.66
2022-03-13 04:45:00,,0824.6,5.01,0.00,22.8,22.1,00.0,31.8,24.6,10.5,0000.0,0003.14,0000.93,0000.66
2022-03-13 04:46:00,,0824.6,5.01,0.00,22.8,22.1,00.0,31.8,24.5,10.5,0000.0,0003.02,0000.92,0000.66
2022-03-13 04:47:00,,0824.6,5.00,0.00,22.8,22.1,00.0,31.8,24.6,10.4,0000.0,0003.00,0000.92,0000.67
2022-03-13 04:48:00,,0824.7,5.01,0.00,22.8,22.1,00.0,31.8,24.6,10.4,0000.0,0002.99,0000.92,0000.69
2022-03-13 04:49:00,,0824.6,5.00,0.00,22.8,22.1,00.0,31.8,24.6,10.4,0000.0,0002.99,0000.93,0000.70
2022-03-13 04:50:00,,0824.6,5.00,0.00,22.9,22.1,00.0,31.8,24.6,10.4,0000.0,0002.94,0000.91,0000.71
2022-03-13 04:51:00,,0824.5,5.00,0.00,22.9,22.1,00.0,31.8,24.7,10.5,0000.0,0002.85,0000.87,0000.71
2022-03-13 04:52:00,,0824.6,5.00,0.00,22.9,22.1,00.0,31.8,24.6,10.6,0000.0,0001.95,0000.87,0000.71
2022-03-13 04:53:00,,0824.5,5.00,0.00,22.9,22.1,00.0,31.8,24.6,10.7,0000.0,0001.26,0000.87,0000.71
2022-03-13 04:54:00,,0824.4,5.00,0.00,22.9,22.1,00.0,31.8,24.6,10.7,0000.0,0002.97,0000.91,0000.71
2022-03-13 04:55:00,,0824.4,5.01,0.00,22.9,22.1,00.0,31.8,24.6,10.9,0000.0,0002.93,0000.89,0000.71
2022-03-13 04:56:00,,0824.3,5.00,0.00,22.9,22.1,00.0,31.8,24.7,10.8,0000.0,0002.99,0000.90,0000.72
2022-03-13 04:57:00,,0824.2,5.00,0.00,22.9,22.1,00.0,31.8,24.6,10.6,0000.0,0003.02,0000.91,0000.71
2022-03-13 04:58:00,,0824.3,5.00,0.00,22.9,22.1,00.0,31.8,24.6,10.7,0000.0,0003.02,0000.90,0000.70
2022-03-13 04:59:00,,0824.3,5.01,0.00,22.8,22.0,00.0,31.8,24.5,10.7,0000.0,0003.01,0000.89,0000.69
